Volver al catálogo

STARLINK-31239

ActivoComunicacionesVLEO
NORAD 60093·PAYLOAD·🇺🇸 United States

Lanzado Jun 23, 2024 desde Cape Canaveral Space Force Station

Loading…

Próximos Pases (próximas 24 horas)

TLE

ActualizadoSource: CelesTrak SupGP

Época: Sep 14, 2026, 22:46 UTC

1 60093C 24117C   26257.94909722  .00023817  00000+0  70354-3 0  2576
2 60093  53.1581 235.7458 0001442  96.8597 321.5571 15.34384473    19

Sigue STARLINK-31239 en tiempo real con AllMySat

Download on the App Store